User: anonymous   Login
Location: Castelbiague
(43.0361°N, 0.9246°E)
Time: 11:19:26
(UTC+00:00)
Language:

Cosmos 1674 - Orbit

View from above orbital plane
View from above orbital plane
View from above satellite
View from above satellite

Ground track
Ground track

The orbit data is extracted from the following two-line orbital elements,

1 15944U 85069A   21259.58264362  .00001185  00000-0  52357-4 0  9997
2 15944  82.5064 129.0383 0017895 118.7549 241.5487 15.20576041973473
Epoch (UTC): 16 September 2021 13:59:00
Eccentricity: 0.0017895
inclination: 82.5064°
perigee height: 492 km
apogee height: 516 km
right ascension of ascending node: 129.0383°
argument of perigee: 118.7549°
revolutions per day: 15.20576041
mean anomaly at epoch: 241.5487°
orbit number at epoch: 97347

The dashed part of the orbit path shows where the satellite is in the earth's shadow,  

DLR